Location: *
(41.3833°S, 177.8333°W)
Time: 02:33:12
(UTC+00:00)

STARLINK-1158 - Pass Details

Date: 01 April 2020
Orbit: 548 x 550 km, 53.0° (Epoch: 31 May)

Event Time Altitude Azimuth Distance (km) Brightness Sun altitude
Exits shadow 15:16:41 23° 108° (ESE) 1,220 6.0 -32.2°
Drops below altitude 10° 15:18:38 10° 88° (E) 1,840 7.0 -31.9°
Enters shadow 16:22:16 -57° 233° (SW) 11,324 10.2 -20.5°
Maximum altitude 16:54:31 48° 316° (NW) 730 3.9 -14.6°
